| time (UTC) | temp F | wind direction | speed MPH | gust MPH | rain 1hr in | rain 24hr in | rain mn in | humidity % | barometer mb |
| 20260901164556 | 73 | 163 | 0.0 | 1.0 | 0.00 | 1.70 | 1.30 | 95 | 1015.0 |
| 20260901163052 | 73 | 163 | 0.0 | 2.0 | 0.00 | 1.70 | 1.30 | 95 | 1015.1 |
| 20260901161553 | 73 | 163 | 0.0 | 3.0 | 0.00 | 1.70 | 1.30 | 95 | 1015.2 |
| 20260901154545 | 72 | 171 | 0.0 | 3.0 | 0.00 | 1.70 | 1.30 | 95 | 1015.4 |
| 20260901153043 | 72 | 171 | 0.0 | 2.0 | 0.00 | 1.70 | 1.30 | 95 | 1015.5 |
| 20260901151542 | 71 | 171 | 0.0 | 4.0 | 0.00 | 1.70 | 1.30 | 95 | 1015.4 |
| 20260901150039 | 71 | 170 | 1.0 | 5.0 | 0.08 | 1.70 | 1.30 | 95 | 1015.4 |
| 20260901144539 | 71 | 169 | 1.0 | 6.0 | 0.12 | 1.70 | 1.30 | 95 | 1015.4 |
| 20260901143044 | 71 | 169 | 0.0 | 4.0 | 0.35 | 1.70 | 1.30 | 95 | 1015.5 |
| 20260901141543 | 70 | 171 | 2.0 | 4.0 | 0.35 | 1.70 | 1.30 | 95 | 1015.6 |
| 20260901140050 | 70 | 171 | 0.0 | 2.0 | 0.39 | 1.61 | 1.21 | 95 | 1015.7 |
| 20260901134540 | 70 | 171 | 1.0 | 2.0 | 0.56 | 1.54 | 1.13 | 95 | 1015.6 |
| 20260901133040 | 70 | 171 | 1.0 | 3.0 | 0.67 | 1.35 | 0.95 | 95 | 1015.8 |
| 20260901131537 | 69 | 172 | 1.0 | 3.0 | 0.81 | 1.35 | 0.95 | 95 | 1016.0 |
| 20260901130038 | 69 | 175 | 1.0 | 3.0 | 0.77 | 1.22 | 0.82 | 95 | 1016.4 |
| 20260901124528 | 69 | 187 | 0.0 | 3.0 | 0.47 | 0.92 | 0.52 | 94 | 1016.3 |
| 20260901123029 | 69 | 187 | 1.0 | 3.0 | 0.24 | 0.68 | 0.28 | 95 | 1016.4 |
| 20260901121527 | 69 | 248 | 0.0 | 4.0 | 0.09 | 0.53 | 0.13 | 95 | 1016.6 |
| 20260901120044 | 68 | 155 | 0.0 | 2.0 | 0.01 | 0.45 | 0.05 | 94 | 1016.0 |
| 20260901114524 | 68 | 155 | 1.0 | 3.0 | 0.01 | 0.45 | 0.05 | 95 | 1016.1 |
| 20260901113022 | 67 | 155 | 0.0 | 2.0 | 0.00 | 0.44 | 0.04 | 95 | 1015.8 |
| 20260901111521 | 67 | 155 | 1.0 | 3.0 | 0.00 | 0.44 | 0.04 | 94 | 1015.8 |
| 20260901110019 | 67 | 155 | 1.0 | 2.0 | 0.00 | 0.44 | 0.04 | 94 | 1015.4 |
| 20260901104517 | 66 | 155 | 0.0 | 2.0 | 0.00 | 0.44 | 0.04 | 94 | 1015.7 |
| 20260901103018 | 66 | 155 | 1.0 | 2.0 | 0.00 | 0.44 | 0.04 | 94 | 1015.7 |
| 20260901101511 | 66 | 155 | 0.0 | 2.0 | 0.00 | 0.44 | 0.04 | 94 | 1015.5 |
| 20260901100008 | 66 | 155 | 0.0 | 3.0 | 0.00 | 0.44 | 0.04 | 94 | 1015.5 |
| 20260901094508 | 66 | 155 | 0.0 | 2.0 | 0.00 | 0.44 | 0.04 | 94 | 1015.7 |
| 20260901093006 | 66 | 155 | 0.0 | 1.0 | 0.00 | 0.44 | 0.04 | 94 | 1015.9 |
| 20260901091505 | 66 | 155 | 1.0 | 2.0 | 0.01 | 0.44 | 0.04 | 94 | 1015.9 |
| 20260901090008 | 66 | 155 | 0.0 | 1.0 | 0.02 | 0.44 | 0.04 | 94 | 1016.1 |
| 20260901083002 | 66 | 155 | 0.0 | 1.0 | 0.04 | 0.44 | 0.04 | 94 | 1016.5 |
| 20260901081602 | 66 | 155 | 0.0 | 2.0 | 0.03 | 0.43 | 0.03 | 94 | 1016.6 |
| 20260901080108 | 65 | 155 | 0.0 | 2.0 | 0.02 | 0.42 | 0.02 | 94 | 1016.7 |
| 20260901074601 | 65 | 155 | 0.0 | 2.0 | 0.00 | 0.40 | 0.00 | 94 | 1016.6 |
| 20260901073057 | 65 | 155 | 0.0 | 1.0 | 0.00 | 0.40 | 0.00 | 94 | 1016.7 |
| 20260901071557 | 65 | 155 | 0.0 | 1.0 | 0.00 | 0.40 | 0.00 | 94 | 1016.8 |
| 20260901070059 | 65 | 155 | 1.0 | 2.0 | 0.00 | 0.40 | 0.00 | 94 | 1016.8 |
| 20260901064555 | 65 | 155 | 0.0 | 2.0 | 0.00 | 0.40 | 0.00 | 94 | 1016.7 |
| 20260901063053 | 65 | 155 | 0.0 | 2.0 | 0.00 | 0.40 | 0.00 | 93 | 1016.8 |
| 20260901061551 | 65 | 155 | 0.0 | 2.0 | 0.00 | 0.40 | 0.00 | 93 | 1017.0 |
| 20260901060050 | 65 | 155 | 0.0 | 1.0 | 0.00 | 0.40 | 0.00 | 93 | 1017.3 |
| 20260901054548 | 65 | 155 | 0.0 | 1.0 | 0.00 | 0.40 | 0.00 | 93 | 1017.3 |
| 20260901053115 | 65 | 155 | 1.0 | 2.0 | 0.00 | 0.40 | 0.00 | 93 | 1017.4 |
| 20260901051602 | 65 | 155 | 0.0 | 1.0 | 0.00 | 0.40 | 0.00 | 93 | 1017.6 |
| 20260901050044 | 65 | 155 | 0.0 | 0.0 | 0.00 | 0.40 | 0.00 | 93 | 1017.5 |
| 20260901044554 | 66 | 155 | 0.0 | 2.0 | 0.00 | 0.40 | 0.00 | 93 | 1017.5 |
| 20260901043042 | 66 | 155 | 0.0 | 1.0 | 0.00 | 0.40 | 0.00 | 93 | 1017.6 |
| 20260901041541 | 66 | 155 | 0.0 | 1.0 | 0.00 | 0.40 | 0.00 | 93 | 1017.5 |
| 20260901040051 | 66 | 155 | 0.0 | 0.0 | 0.00 | 0.40 | 0.00 | 93 | 1017.6 |
| 20260901034546 | 66 | 155 | 0.0 | 1.0 | 0.00 | 0.40 | 0.40 | 93 | 1017.6 |
| 20260901033037 | 67 | 155 | 0.0 | 1.0 | 0.00 | 0.40 | 0.40 | 93 | 1017.6 |
| 20260901031537 | 67 | 155 | 0.0 | 2.0 | 0.00 | 0.40 | 0.40 | 93 | 1017.6 |
| 20260901030037 | 68 | 155 | 0.0 | 1.0 | 0.00 | 0.40 | 0.40 | 93 | 1017.4 |
| 20260901024536 | 68 | 155 | 0.0 | 1.0 | 0.00 | 0.40 | 0.40 | 93 | 1017.6 |
| 20260901021535 | 68 | 155 | 0.0 | 2.0 | 0.02 | 0.40 | 0.40 | 93 | 1017.8 |
| 20260901020040 | 68 | 155 | 1.0 | 3.0 | 0.02 | 0.40 | 0.40 | 93 | 1017.9 |
| 20260901014538 | 68 | 155 | 1.0 | 5.0 | 0.02 | 0.40 | 0.40 | 93 | 1017.9 |
| 20260901013033 | 68 | 155 | 1.0 | 7.0 | 0.02 | 0.40 | 0.40 | 93 | 1018.1 |
| 20260901011533 | 68 | 155 | 0.0 | 0.0 | 0.00 | 0.38 | 0.38 | 93 | 1018.4 |
| 20260901010032 | 68 | 155 | 0.0 | 0.0 | 0.00 | 0.38 | 0.38 | 93 | 1017.8 |
| 20260901004534 | 68 | 155 | 0.0 | 0.0 | 0.00 | 0.38 | 0.38 | 93 | 1017.7 |
| 20260901003031 | 68 | 155 | 0.0 | 0.0 | 0.01 | 0.38 | 0.38 | 92 | 1017.6 |
| 20260901001532 | 68 | 155 | 0.0 | 0.0 | 0.01 | 0.38 | 0.38 | 92 | 1017.5 |
| 20260901000029 | 68 | 155 | 0.0 | 1.0 | 0.01 | 0.38 | 0.38 | 92 | 1017.7 |
| 20260831234528 | 68 | 155 | 0.0 | 2.0 | 0.01 | 0.38 | 0.38 | 92 | 1017.7 |
| 20260831233027 | 68 | 155 | 0.0 | 2.0 | 0.01 | 0.37 | 0.37 | 92 | 1017.8 |
| 20260831231525 | 68 | 155 | 0.0 | 2.0 | 0.01 | 0.37 | 0.37 | 92 | 1017.9 |
| 20260831230023 | 68 | 155 | 0.0 | 2.0 | 0.02 | 0.37 | 0.37 | 92 | 1018.1 |
| 20260831224522 | 68 | 155 | 0.0 | 2.0 | 0.02 | 0.37 | 0.37 | 92 | 1018.3 |
| 20260831223024 | 68 | 155 | 0.0 | 3.0 | 0.01 | 0.36 | 0.36 | 92 | 1018.5 |
| 20260831221519 | 68 | 155 | 0.0 | 2.0 | 0.03 | 0.36 | 0.36 | 92 | 1018.6 |
| 20260831220018 | 68 | 155 | 0.0 | 3.0 | 0.02 | 0.35 | 0.35 | 92 | 1018.7 |
| 20260831214517 | 68 | 155 | 0.0 | 2.0 | 0.02 | 0.35 | 0.35 | 92 | 1018.8 |
| 20260831213017 | 69 | 155 | 0.0 | 0.0 | 0.02 | 0.35 | 0.35 | 92 | 1018.8 |
| 20260831211517 | 69 | 155 | 0.0 | 3.0 | 0.01 | 0.33 | 0.33 | 92 | 1018.9 |
| 20260831210018 | 69 | 155 | 0.0 | 1.0 | 0.04 | 0.33 | 0.33 | 92 | 1018.8 |
| 20260831204516 | 69 | 155 | 1.0 | 3.0 | 0.06 | 0.33 | 0.33 | 92 | 1018.7 |
| 20260831203015 | 69 | 155 | 1.0 | 2.0 | 0.07 | 0.33 | 0.33 | 92 | 1018.8 |
| 20260831201514 | 69 | 155 | 0.0 | 2.0 | 0.07 | 0.32 | 0.32 | 92 | 1018.8 |
| 20260831200028 | 68 | 155 | 0.0 | 5.0 | 0.03 | 0.28 | 0.28 | 91 | 1018.9 |
| 20260831194512 | 68 | 155 | 0.0 | 3.0 | 0.02 | 0.27 | 0.27 | 91 | 1018.9 |
| 20260831193015 | 68 | 155 | 1.0 | 6.0 | 0.01 | 0.26 | 0.26 | 91 | 1019.2 |
| 20260831190007 | 68 | 157 | 1.0 | 5.0 | 0.01 | 0.25 | 0.25 | 91 | 1019.5 |
| 20260831184506 | 68 | 157 | 2.0 | 6.0 | 0.01 | 0.25 | 0.25 | 91 | 1019.6 |
| 20260831183003 | 67 | 157 | 1.0 | 5.0 | 0.02 | 0.25 | 0.25 | 91 | 1019.8 |
| 20260831181502 | 67 | 158 | 0.0 | 5.0 | 0.04 | 0.24 | 0.24 | 91 | 1020.0 |
| 20260831180105 | 67 | 158 | 0.0 | 7.0 | 0.06 | 0.24 | 0.24 | 90 | 1020.2 |
| 20260831174600 | 67 | 161 | 0.0 | 1.0 | 0.07 | 0.24 | 0.24 | 90 | 1020.3 |
| 20260831173059 | 67 | 161 | 0.0 | 3.0 | 0.09 | 0.23 | 0.23 | 89 | 1020.5 |
| 20260831171559 | 67 | 161 | 0.0 | 0.0 | 0.11 | 0.20 | 0.20 | 88 | 1020.7 |